Simultaneous Nadir Overpasses (SNOs) Predictions

Prediction of SNOs between TERRA and METOP-C Satellite Orbit:

Table of predicted SNOs for the next 14.0 days since TLE Epoch: 6/20/2020
Index Date (TERRA) Time (TERRA) Lat,Lon (TERRA) SZA (TERRA ) Date (METOP-C) Time (METOP-C) Lat,Lon (METOP-C) SZA (METOP-C ) Distance(km) Time Diff (sec)
1 06/20/2020 07:30:09 -81.31, -64.99 119.21 06/20/2020 07:29:11 -81.31, -64.86 119.22 2.20 58
2 06/20/2020 08:19:35 81.32, 102.77 60.82 06/20/2020 08:19:50 81.31, 102.87 60.83 1.70 15
3 06/23/2020 03:04:25 -81.30, 1.19 119.25 06/23/2020 03:03:34 -81.31, 1.32 119.25 2.29 51
4 06/23/2020 03:53:51 81.30, 168.92 60.77 06/23/2020 03:54:13 81.31, 169.04 60.80 2.25 22
5 06/25/2020 22:38:39 -81.30, 67.71 119.18 06/25/2020 22:37:55 -81.31, 67.87 119.18 2.67 44
6 06/25/2020 23:28:05 81.31,-124.59 60.83 06/25/2020 23:28:34 81.31,-124.40 60.87 3.18 29
7 06/28/2020 18:12:54 -81.31, 134.20 119.07 06/28/2020 18:12:18 -81.30, 134.01 119.11 3.20 36
8 06/28/2020 19:02:20 81.31, -58.13 60.94 06/28/2020 19:02:57 81.31, -58.25 60.95 2.15 37
9 07/01/2020 13:47:09 -81.31,-159.34 118.91 07/01/2020 13:46:40 -81.31,-159.47 118.93 2.13 29




NCC Satellite Simultaneous Nadir Overpasses (SNOs) Prediction Service
